Regional Weather Roundup
Issued by NWS

Home | Current Version | Previous Version | Graphics & Text | Print | Product List | Glossary On
Versions: 1 2 3 4 5 6 7 8 9 10 11 12 13 14 15 16 17 18 19 20 21 22 23 24 25 26 27 28 29 30 31 32 33 34 35 36 37 38 39 40 41 42 43 44 45 46 47 48 49 50
000
ASUS43 KLMK 220710
RWRKY
KENTUCKY REGIONAL WEATHER ROUNDUP
NATIONAL WEATHER SERVICE LOUISVILLE KY
300 AM EDT FRI AUG 22 2014

NOTE "FAIR" INDICATES FEW OR NO CLOUDS BELOW 12,000 FEET
WITH NO SIGNIFICANT WEATHER AND/OR OBSTRUCTIONS TO VISIBILITY.

KYZ001>023-026-027-061>063-070>075-220800-
WESTERN AND SOUTH CENTRAL KENTUCKY

CITY           SKY/WX    TMP DP  RH WIND       PRES   REMARKS
PADUCAH        CLEAR     80  73  79 SW6       30.02F
HENDERSON      CLEAR     75  70  83 S6        29.99F
OWENSBORO      PTCLDY    75  73  93 S5        30.01F
HOPKINSVILLE   CLEAR     76  76 100 SW5       30.05F
BOWLING GREEN  MOCLDY    78  71  79 SW3       30.06F
GLASGOW        PTCLDY    74  73  96 CALM      30.07S
$$

KYZ024-025-028>034-038-045-046-053-220800-
NORTH CENTRAL KENTUCKY

CITY           SKY/WX    TMP DP  RH WIND       PRES   REMARKS
LOUISVILLE/SDF CLOUDY    80  72  76 SW7       30.00F
LOUISVILLE/LOU MOCLDY    79  72  79 CALM      30.01F
FORT KNOX      MOCLDY    74  74 100 SW6       30.01F
$$

KYZ035>037-039>044-047>052-055>060-089>105-220800-
NORTHEAST KENTUCKY

CITY           SKY/WX    TMP DP  RH WIND       PRES   REMARKS
LEXINGTON      CLOUDY    77  71  82 SW6       30.05F
COVINGTON      CLOUDY    71  69  93 CALM      30.01F
FRANKFORT      CLOUDY    75  72  90 SW7       30.02F
$$

KYZ054-064>069-076>088-106>120-220800-
SOUTHEAST KENTUCKY

CITY           SKY/WX    TMP DP  RH WIND       PRES   REMARKS
JACKSON        MOCLDY    71  69  93 VRB3      30.07F
LONDON         MOCLDY    75  69  81 CALM      30.09F
SOMERSET       CLOUDY    72  72 100 CALM      30.08F
MIDDLESBORO    PTCLDY    69  69  99 CALM      30.11F
MONTICELLO     PTSUNNY   70  69  96 CALM      30.09F
$$




USA.gov is the U.S. government's official web portal to all federal, state and local government web resources and services.